Regional Weather Roundup
Issued by NWS

Home | Current Version | Previous Version | Text Only | Print | Product List | Glossary Off
Versions: 1 2 3 4 5 6 7 8 9 10 11 12 13 14 15 16 17 18 19 20 21 22 23 24 25 26 27 28 29 30 31 32 33 34 35 36 37 38 39 40 41 42 43 44 45 46 47 48 49 50

000
ASUS45 KTFX 300510
RWRMT
MONTANA REGIONAL WEATHER ROUNDUP
NATIONAL WEATHER SERVICE GREAT FALLS MT
1100 PM MDT FRI JUL 29 2016

NOTE: "FAIR" INDICATES FEW OR NO CLOUDS BELOW 12000 FEET WITH NO
SIGNIFICANT WEATHER AND/OR OBSTRUCTIONS TO VISIBILITY.

MTZ001>007-043-300600-
WEST OF THE DIVIDE

CITY           SKY/WX    TMP DP  RH WIND       PRES   REMARKS
KALISPELL      CLEAR     64  58  80 N7        29.85F
MISSOULA       CLEAR     74  47  38 CALM      29.88S
BUTTE          CLEAR     71  42  35 S3        30.05F
MULLAN PASS    CLEAR     70  40  33 VRB3      30.09F
DEER LODGE       N/A     66  45  45 W5        30.01F
EUREKA           N/A     73  50  43 W5        29.83S
HAMILTON         N/A     68  52  56 CALM      29.92S
LIBBY            N/A     73  50  43 S5        29.83F
PLAINS           N/A     77  51  39 CALM      29.86
RONAN            N/A     64  55  72 MISG      29.93F
THOMPSON FALLS   N/A     73  55  53 CALM      29.89R
$$

MTZ008-052>055-300600-
SOUTHWEST MONTANA

CITY           SKY/WX    TMP DP  RH WIND       PRES   REMARKS
BOZEMAN        CLEAR     74  48  39 SE3       29.98F
DILLON         CLEAR     70  44  39 N5        30.01R
W YELLOWSTONE  MOCLDY    59  37  44 SW5       30.15S
ENNIS          CLEAR     66  41  39 S9        30.08R
THREE FORKS      N/A     68  21  16 CALM      29.97S
$$

MTZ009-010-012-014-046-048-049-054-300600-
EAST SLOPES AND CENTRAL MONTANA

CITY           SKY/WX    TMP DP  RH WIND       PRES   REMARKS
CUT BANK         N/A     69  53  56 SE6       29.95F
GREAT FALLS    CLEAR     69  48  47 E8        29.95S
MALMSTROM AFB  CLEAR     68  51  54 SE9       29.94F
HELENA         CLEAR     74  46  36 W6        29.94R
CHOTEAU          N/A     68  46  45 SE5       29.98F
CONRAD           N/A     62  56  81 CALM      29.99F
$$

MTZ011-013-016-021-045-047-050-051-300600-
NORTH CENTRAL MONTANA

CITY           SKY/WX    TMP DP  RH WIND       PRES   REMARKS
HAVRE          CLEAR     68  56  65 CALM      29.91S
N BAR RANCH      N/A     59  50  72 W7        30.08S
CHINOOK          N/A     70  57  64 CALM      29.91S
$$

MTZ017>020-022>027-061-062-300600-
NORTHEAST MONTANA

CITY           SKY/WX    TMP DP  RH WIND       PRES   REMARKS
GLASGOW        CLEAR     65  56  72 E7        29.94S
JORDAN           N/A     67  58  72 E5        29.96S
SIDNEY         CLEAR     61  47  59 NW3       29.95S
WOLF POINT     CLEAR     66  56  70 NE3       29.95R
PLENTYWOOD       N/A     64  55  72 NE6       29.96S
POPLAR           N/A     64  54  68 CALM      29.95S
SCOBEY           N/A     60  43  53 CALM      29.96S
$$

MTZ028>42-056>058-300600-
SOUTHCENTRAL AND SOUTHEAST MONTANA

CITY           SKY/WX    TMP DP  RH WIND       PRES   REMARKS
BAKER          CLEAR     64  57  78 E3        30.00F
BILLINGS       CLEAR     74  50  42 NE7       29.99S
LIVINGSTON     CLEAR     73  47  39 E18       30.01S
MILES CITY     CLEAR     71  52  50 E6        29.96S
EKALAKA          N/A     67  51  56 SE5       30.00S
FORSYTH          N/A     70  54  56 E5        29.96S
LAUREL           N/A     71  50  47 CALM      29.99R
ROUNDUP          N/A     70  50  49 CALM      29.92S
$$

REGIONAL REPORTS...DAKOTAS

CITY           SKY/WX    TMP DP  RH WIND       PRES   REMARKS
WILLISTON      CLEAR     66  57  72 CALM      29.96S
MINOT          CLEAR     68  61  78 SE5       29.95F
DICKINSON      CLEAR     61  58  90 SE7       29.96F
BEACH            N/A     61  55  82 CALM      30.01F
CROSBY           N/A     57  57 100 SW5       29.98S
WATFORD CITY     N/A    N/A N/A N/A MISG        N/A
BISMARCK       CLOUDY    66  61  84 NE6       29.97S
GRAND FORKS    CLEAR     64  57  78 SE3       29.98F
FARGO          CLOUDY    70  63  78 S7        30.00F
BUFFALO SD       N/A     69  55  60 S6        29.94S
RAPID CITY     CLEAR     60  54  80 CALM      30.02S
$$

REGIONAL REPORTS...WYOMING/IDAHO/WASHINGTON

CITY           SKY/WX    TMP DP  RH WIND       PRES   REMARKS
GILLETTE       CLEAR     69  56  62 S14       30.06R
SHERIDAN       PTCLDY    68  50  52 S6        30.02S
BUFFALO WY     CLOUDY    66  52  60 SE8       30.08F
CODY           CLEAR     64  52  63 S5        30.08S
YELLOWSTONE LA   N/A     53  40  61 NW3       30.26S
IDAHO FALLS    CLEAR     79  39  23 S9        29.95S
SALMON         CLEAR     73  43  33 S3        29.90R
BOISE          CLEAR     85  42  22 CALM      29.81S
SPOKANE        PTCLDY    84  42  22 SW10      29.79F
$$

REGIONAL REPORTS...ALBERTA

CITY           SKY/WX    TMP DP  RH WIND       PRES   REMARKS
EDMONTON       MOCLDY    70  55  60 N5        29.80F
CALGARY        PTCLDY    66  55  68 S8G18     29.87F
LETHBRIDGE     CLEAR     63  57  82 S16       29.87F
MEDICINE HAT   CLEAR     66  55  68 S8        29.88F
WATERTON GATE    N/A     57  50  77 S6          N/A
CARDSTON         N/A     68  54  60 S3          N/A
MILK RIVER       N/A     61  55  82 SE5         N/A
ONEFOUR          N/A     66  50  55 E10         N/A
$$

REGIONAL REPORTS...SASKATCHEWAN

CITY           SKY/WX    TMP DP  RH WIND       PRES   REMARKS
SWIFT CURRENT  CLEAR     61  57  88 S6        29.93F
REGINA         PTCLDY    61  57  88 S7        29.92S
SASKATOON      CLEAR     61  59  94 S3        29.87F
CYPRESS HILLS    N/A     61  50  67 SE3         N/A
VAL MARIE        N/A     61  55  82 E5          N/A
ROCKGLEN         N/A     61  55  82 S5          N/A
ASSINIBOIA       N/A     64  61  88 S5          N/A
$$



USA.gov is the U.S. government's official web portal to all federal, state and local government web resources and services.